Weather in San Juan Bautista

Paraguay     26°40′13″S   57°08′05″W
temp.,
°C
wind,
m/s
gust,
m/s
humid.,
%
clouds,
%
prec.,
mm/h
press.,
hPa
HPBL,
m
18 april, sun
sun1823:00+20se310805 0.0 1014281
02:00+18se27890 0.0 1013152
05:00+18se24900 0.0 101483
08:00+21ese25760 0.0 1015253
11:00+27se23560 0.0 1015899
14:00+28sse33520 0.0 10121448
17:00+24sse24750 0.0 101390
20:00+20se311800 0.0 1014259
19 april, mon
mon1923:00+19se29840 0.0 1014194
02:00+18se28870 0.0 1014167
05:00+17ese25890 0.0 1014118
08:00+21e25740 0.0 1016223
11:00+27e22530 0.0 1015713
14:00+29ese22470 0.0 10131435
17:00+25se24720 0.0 101273
20:00+21se310750 0.0 1013224
20 april, tue
tue2023:00+22ese312710 0.0 1013327
02:00+19e310760 0.0 1012200
05:00+18e29780 0.0 1013167
08:00+21ene27660 0.0 1015219
11:00+28ne34460 0.0 1015734
14:00+30e23410 0.0 10121379
17:00+25se36680 0.0 1011116
20:00+22ese39660 0.0 1012161
21 april, wed
wed2123:00+20e39702 0.0 1012185
02:00+19e310695 0.0 1011181
05:00+18ene310720 0.0 1011216
08:00+21ene3136569 0.0 1013371
11:00+29ne584156 0.0 1012988
14:00+30nne474039 0.0 10101208
17:00+25ene266129 0.0 1010112
20:00+23e310630 0.0 1011207
22 april, thu
thu2223:00+22e31259100 0.0 1011262
02:00+22ene31255100 0.0 1011301
05:00+21ne31057100 0.0 1012275
08:00+21ne31063100 0.0 1014298
11:00+24nne3854100 0.0 1014625
14:00+27ne2445100 0.0 1012852
17:00+23ne2663100 0.0 1012145
20:00+19e26739 0.0 1013118